OVERFALLS Weather Reports


Display with metric or nautical units.
time (UTC)temp
F
wind
direction
speed
MPH
gust
MPH
rain 1hr
in
rain 24hr
in
rain mn
in
humidity
%
barometer
mb
20260508081551 51 276 6.0 19.0 0.00 0.03 0.00 84 1012.4
20260508080052 51 284 7.0 15.0 0.00 0.03 0.00 87 1012.1
20260508074545 50 360 6.0 12.0 0.00 0.05 0.00 87 1012.0
20260508073043 50 360 7.0 12.0 0.00 0.05 0.00 86 1011.7
20260508071544 50 360 4.0 11.0 0.00 0.05 0.00 86 1011.4
20260508070045 50 360 6.0 10.0 0.00 0.05 0.00 86 1011.2
20260508064602 50 263 7.0 15.0 0.00 0.07 0.00 86 1011.2
20260508063047 50 250 8.0 13.0 0.00 0.07 0.00 86 1011.1
20260508061544 49 253 7.0 11.0 0.00 0.07 0.00 86 1011.1
20260508060045 49 250 6.0 11.0 0.00 0.07 0.00 87 1011.1
20260508054543 49 262 3.0 8.0 0.00 0.07 0.00 87 1011.1
20260508053042 49 257 4.0 10.0 0.00 0.07 0.00 88 1011.1
20260508051542 49 240 4.0 9.0 0.00 0.07 0.00 90 1011.2
20260508050049 48 241 3.0 8.0 0.00 0.07 0.00 91 1011.2
20260508044540 48 261 5.0 9.0 0.00 0.07 0.00 92 1011.3
20260508043042 48 229 4.0 8.0 0.00 0.07 0.00 92 1011.3
20260508041546 48 238 2.0 5.0 0.00 0.07 0.00 92 1011.2
20260508040048 48 233 1.0 5.0 0.00 0.07 0.00 92 1011.1
20260508034542 49 360 2.0 6.0 0.00 0.07 0.07 92 1011.1
20260508033042 49 360 3.0 8.0 0.00 0.07 0.07 92 1010.9
20260508031548 49 218 2.0 6.0 0.00 0.07 0.07 92 1011.1
20260508030059 50 240 1.0 5.0 0.00 0.07 0.07 92 1011.2
20260508024554 50 221 2.0 6.0 0.00 0.07 0.07 91 1011.0
20260508023050 50 229 2.0 5.0 0.00 0.07 0.07 91 1011.0
20260508021548 51 259 2.0 7.0 0.00 0.07 0.07 90 1011.0
20260508020047 51 223 2.0 7.0 0.00 0.07 0.07 90 1010.7
20260508014547 51 227 2.0 7.0 0.00 0.07 0.07 89 1010.8
20260508013042 51 211 2.0 7.0 0.00 0.07 0.07 88 1010.8
20260508011553 52 212 1.0 7.0 0.00 0.07 0.07 88 1010.7
20260508010052 52 223 2.0 6.0 0.00 0.07 0.07 87 1010.1
20260508004556 52 228 2.0 6.0 0.00 0.07 0.07 87 1010.0
20260508003045 52 233 2.0 5.0 0.00 0.07 0.07 86 1009.8
20260508001544 52 211 1.0 6.0 0.00 0.07 0.07 85 1009.6
20260508000045 53 211 2.0 5.0 0.00 0.07 0.07 84 1009.5
20260507234546 53 197 2.0 6.0 0.00 0.07 0.07 83 1009.6
20260507233038 53 207 3.0 5.0 0.00 0.07 0.07 83 1009.6
20260507231550 53 188 2.0 8.0 0.00 0.07 0.07 83 1009.4
20260507230040 53 194 3.0 10.0 0.00 0.07 0.07 81 1009.6
20260507224556 54 204 4.0 7.0 0.00 0.07 0.07 80 1009.4
20260507223041 54 205 4.0 7.0 0.00 0.07 0.07 85 1009.8
20260507221545 53 225 2.0 5.0 0.00 0.07 0.07 84 1009.3
20260507220046 53 220 1.0 5.0 0.01 0.07 0.07 86 1009.4
20260507214553 53 221 2.0 5.0 0.02 0.07 0.07 86 1009.8
20260507213103 54 225 2.0 4.0 0.01 0.07 0.07 85 1009.8
20260507211541 54 225 2.0 7.0 0.02 0.07 0.07 84 1009.5
20260507210048 54 231 2.0 6.0 0.01 0.06 0.06 82 1010.0
20260507204553 55 360 2.0 6.0 0.00 0.05 0.05 81 1009.6
20260507203044 55 360 2.0 4.0 0.01 0.05 0.05 78 1009.7
20260507201546 56 360 2.0 4.0 0.00 0.04 0.04 76 1009.6
20260507200042 56 360 0.0 3.0 0.00 0.04 0.04 73 1009.6
20260507194538 56 0 0.0 2.0 0.00 0.04 0.04 72 1009.4
20260507193042 56 360 1.0 3.0 0.00 0.03 0.03 72 1010.0
20260507191541 56 360 2.0 6.0 0.00 0.03 0.03 74 1009.6
20260507190042 56 360 2.0 6.0 0.00 0.03 0.03 70 1009.9
20260507184541 57 360 2.0 5.0 0.00 0.03 0.03 68 1010.6
20260507183047 56 360 2.0 5.0 0.00 0.03 0.03 69 1010.7
20260507181541 56 332 3.0 8.0 0.00 0.03 0.03 70 1010.5
20260507180050 56 324 3.0 8.0 0.00 0.03 0.03 71 1010.5
20260507174541 56 337 4.0 6.0 0.00 0.03 0.03 74 1010.6
20260507173042 57 11 4.0 6.0 0.00 0.03 0.03 73 1010.6
20260507171543 56 38 3.0 6.0 0.00 0.03 0.03 73 1010.8
20260507170038 57 355 1.0 6.0 0.00 0.03 0.03 71 1011.4
20260507164543 56 346 3.0 8.0 0.00 0.03 0.03 71 1011.3
20260507163045 56 28 3.0 7.0 0.00 0.03 0.03 72 1011.5
20260507161543 56 5 3.0 6.0 0.00 0.03 0.03 75 1011.8
20260507160044 56 344 3.0 8.0 0.00 0.03 0.03 74 1011.9
20260507154547 56 32 4.0 9.0 0.00 0.03 0.03 75 1012.0
20260507153054 56 355 5.0 10.0 0.00 0.03 0.03 74 1012.2
20260507151543 56 349 6.0 10.0 0.00 0.03 0.03 75 1012.0
20260507150043 56 40 4.0 10.0 0.00 0.03 0.03 79 1012.0
20260507144548 56 346 4.0 9.0 0.00 0.03 0.03 79 1012.2
20260507143042 55 9 4.0 10.0 0.00 0.03 0.03 79 1012.2
20260507141552 56 360 3.0 10.0 0.00 0.03 0.03 78 1012.3
20260507140106 55 13 5.0 11.0 0.00 0.03 0.03 77 1012.3
20260507134553 55 15 4.0 10.0 0.00 0.03 0.03 77 1012.2
20260507133104 55 346 3.0 10.0 0.00 0.03 0.03 77 1012.4
20260507131545 55 360 5.0 9.0 0.00 0.03 0.03 78 1012.1
20260507130051 55 34 4.0 11.0 0.00 0.03 0.03 78 1012.2
20260507124549 55 344 5.0 10.0 0.00 0.03 0.03 78 1012.2
20260507123053 54 46 4.0 9.0 0.00 0.03 0.03 78 1012.1
20260507121547 54 351 3.0 9.0 0.00 0.03 0.03 78 1012.2
20260507120046 54 25 5.0 12.0 0.00 0.03 0.03 78 1012.4
20260507114547 54 360 8.0 14.0 0.00 0.03 0.03 77 1012.3
20260507113043 54 34 7.0 14.0 0.00 0.03 0.03 77 1012.1
20260507111545 54 13 7.0 15.0 0.00 0.03 0.03 80 1011.6
20260507110043 54 23 7.0 15.0 0.00 0.03 0.03 80 1011.9
20260507104544 54 360 7.0 15.0 0.00 0.03 0.03 81 1012.0
20260507103043 54 5 7.0 14.0 0.00 0.03 0.03 82 1011.7
20260507101546 54 9 4.0 13.0 0.00 0.03 0.03 84 1011.6
20260507100041 54 309 6.0 12.0 0.00 0.03 0.03 85 1011.5
20260507094544 54 360 6.0 14.0 0.00 0.03 0.03 85 1011.6
20260507093042 54 360 7.0 15.0 0.00 0.03 0.03 85 1011.1
20260507091542 54 360 6.0 17.0 0.00 0.03 0.03 86 1010.8
20260507090042 55 360 9.0 16.0 0.00 0.03 0.03 88 1010.9
20260507084552 55 360 8.0 17.0 0.00 0.03 0.03 88 1010.9
20260507083049 55 360 10.0 17.0 0.00 0.03 0.03 89 1010.4